Weather in Telshay

Lithuania     55°59′01″N   22°15′00″E
temp.,
°C
wind,
m/s
gust,
m/s
humid.,
%
clouds,
%
prec.,
mm/h
press.,
hPa
HPBL,
m
28 july, wed
wed2800:00+17wsw369533 0.0 1011102
03:00+16wsw399749 0.0 1010182
06:00+16wsw379820 0.0 1010161
09:00+21wsw4680100 0.0 1011453
12:00+26wsw465110 0.0 10101619
15:00+26wsw6647100 0.3 10101632
18:00+26wsw56435 0.0 10091892
21:00+21wsw236392 0.0 100825
29 july, thu
thu2900:00+19wsw237578 0.0 100867
03:00+16wsw369482 0.2 1008135
06:00+16wsw399932 0.0 1008231
09:00+20wsw58745 0.0 1008710
12:00+24wsw684965 0.0 10071872
15:00+23wsw8105699 0.1 10071645
18:00+22w7104912 0.0 10071744
21:00+18wsw6107669 0.2 1007783
30 july, fri
fri3000:00+13sw410955 0.1 1007217
03:00+12ssw4119322 0.1 1007215
06:00+13ssw512916 0.1 1006302
09:00+18wsw813625 0.1 10051452
12:00+21wsw101349100 0.1 10041937
15:00+21wsw1013415 0.1 10042161
18:00+20wsw91652100 0.0 10031857
21:00+17wsw9166722 0.0 10021251
31 july, sat
sat3100:00+17wsw9157743 0.0 1002992
03:00+17wsw7138430 0.0 1003788
06:00+16wsw5129198 0.0 1003455
09:00+20sw796787 0.0 10041060
12:00+23sw684884 0.0 10031490
15:00+26ssw6940100 0.0 10022496
18:00+19wsw5107915 1.1 1002821
21:00+17wsw411822 1.3 1002609
1 august, sun
sun100:00+16sw6138123 0.0 1002750
03:00+16sw71388100 0.4 1003806
06:00+16wsw71391100 1.5 1002733
09:00+17wsw7117710 2.3 10031191
12:00+19wsw81157100 0.1 10061603
15:00+20wsw7955100 0.1 10061740
18:00+20wsw685670 0.1 10071553
21:00+17wsw367449 0.1 1007130